TimeCDT,TemperatureF,Dew PointF,Humidity,Sea Level PressureIn,VisibilityMPH,Wind Direction,Wind SpeedMPH,Gust SpeedMPH,PrecipitationIn,Events,Conditions,WindDirDegrees,DateUTC
12:53 AM,69.8,64.4,83,29.94,10.0,East,4.6,-,N/A,,Clear,80,2012-10-23 05:53:00
1:53 AM,69.1,63.0,81,29.92,10.0,East,3.5,-,N/A,,Mostly Cloudy,80,2012-10-23 06:53:00
2:53 AM,68.0,63.0,84,29.91,10.0,East,3.5,-,N/A,,Scattered Clouds,80,2012-10-23 07:53:00
3:53 AM,66.9,63.0,87,29.91,10.0,Calm,Calm,-,N/A,,Clear,0,2012-10-23 08:53:00
4:53 AM,66.9,62.1,84,29.91,10.0,NNE,3.5,-,N/A,,Mostly Cloudy,30,2012-10-23 09:53:00
5:53 AM,66.0,61.0,84,29.93,10.0,NNE,4.6,-,N/A,,Partly Cloudy,30,2012-10-23 10:53:00
6:53 AM,64.9,61.0,87,29.93,10.0,Calm,Calm,-,N/A,,Scattered Clouds,0,2012-10-23 11:53:00
7:53 AM,66.0,61.0,84,29.94,10.0,NE,3.5,-,N/A,,Mostly Cloudy,50,2012-10-23 12:53:00
8:53 AM,68.0,63.0,84,29.96,10.0,East,3.5,-,N/A,,Mostly Cloudy,80,2012-10-23 13:53:00
9:53 AM,77.0,61.0,58,29.96,10.0,SW,12.7,-,N/A,,Mostly Cloudy,220,2012-10-23 14:53:00
10:53 AM,77.0,60.1,56,29.96,10.0,SSW,16.1,-,N/A,,Scattered Clouds,200,2012-10-23 15:53:00
12:53 PM,82.9,60.1,46,29.93,10.0,South,13.8,20.7,N/A,,Clear,190,2012-10-23 17:53:00
1:53 PM,82.0,62.1,51,29.90,10.0,SSW,12.7,21.9,N/A,,Mostly Cloudy,200,2012-10-23 18:53:00
2:53 PM,81.0,64.0,56,29.88,10.0,WSW,11.5,-,N/A,,Overcast,240,2012-10-23 19:53:00
3:53 PM,82.0,64.0,54,29.87,10.0,South,11.5,-,N/A,,Mostly Cloudy,190,2012-10-23 20:53:00
4:53 PM,82.9,63.0,51,29.86,10.0,SSW,10.4,-,N/A,,Mostly Cloudy,200,2012-10-23 21:53:00
5:53 PM,81.0,62.1,52,29.86,10.0,SSW,6.9,-,N/A,,Clear,210,2012-10-23 22:53:00
6:53 PM,79.0,62.1,56,29.88,10.0,South,5.8,-,N/A,,Mostly Cloudy,170,2012-10-23 23:53:00
7:53 PM,75.9,62.1,62,29.89,10.0,South,3.5,-,N/A,,Clear,170,2012-10-24 00:53:00
8:53 PM,72.0,61.0,68,29.91,10.0,Calm,Calm,-,N/A,,Clear,0,2012-10-24 01:53:00
9:53 PM,71.1,61.0,70,29.91,10.0,Calm,Calm,-,N/A,,Partly Cloudy,0,2012-10-24 02:53:00
10:53 PM,70.0,62.1,76,29.92,10.0,SE,5.8,-,N/A,,Clear,130,2012-10-24 03:53:00
11:53 PM,69.1,62.1,78,29.92,10.0,Calm,Calm,-,N/A,,Clear,0,2012-10-24 04:53:00